Location: Antioch
(38.0049°N, 121.8058°W)
Time: 00:26:28
(UTC+00:00)

FALCON 9 R/B - Pass Details

Date: 11 February 2026
Orbit: 301 x 9255 km, 34.5° (Epoch: 10 March)

Event Time Altitude Azimuth Distance (km) Brightness Sun altitude
Exits shadow 13:08:29 20° 142° (SE) 870 2.7 -22.8°
Drops below altitude 10° 13:09:41 10° 113° (ESE) 1,205 4.0 -22.6°
Sets 13:11:27 0° 96° (E) 1,965 5.7 -22.2°
